Location: Unspecified
(33.3110°N, 0.0000°E)
Time: 20:42:30
(UTC+00:00)

Tiangong 2 - Visible Passes

Search period start: 19 May 2019 00:00
Search period end: 29 May 2019 00:00
Orbit: 378 x 387 km, 42.8° (Epoch: 19 May)

Date Brightness Start Highest point End Pass type
(mag) Time Alt. Az. Time Alt. Az. Time Alt. Az.
19 May 3.4 03:52:16 11° S 03:52:16 11° S 03:52:29 10° S visible
19 May 1.1 20:18:55 10° WSW 20:22:02 77° NNW 20:24:18 17° NE visible
20 May 1.3 19:19:03 10° SW 19:22:04 49° SE 19:25:06 10° ENE visible
20 May 3.3 20:56:11 10° WNW 20:58:53 26° NNW 21:00:26 17° NNE visible
21 May 2.4 19:55:46 10° W 19:58:44 41° NNW 20:01:44 10° NE visible
21 May 4.0 21:33:59 10° NW 21:35:59 16° N 21:36:03 16° N visible
22 May 3.8 20:33:23 10° WNW 20:35:42 19° NNW 20:38:04 10° NE visible
22 May 4.8 22:11:19 10° NNW 22:11:19 10° NNW 22:11:19 10° NNW visible
23 May 3.3 19:32:47 10° W 19:35:30 26° NNW 19:38:12 10° NE visible
23 May 3.9 21:11:03 10° NW 21:12:53 14° N 21:14:10 12° NNE visible
24 May 3.9 20:10:33 10° NW 20:12:34 16° N 20:14:35 10° NNE visible
24 May 4.2 21:47:55 10° NNW 21:49:02 15° NNW 21:49:02 15° NNW visible
25 May 3.9 20:47:53 10° NNW 20:49:45 15° N 20:51:37 10° NE visible
26 May 3.9 19:47:35 10° NW 19:49:24 14° N 19:51:14 10° NNE visible
26 May 3.5 21:24:22 10° NW 21:26:22 20° N 21:26:22 20° N visible
27 May 3.6 20:24:26 10° NNW 20:26:34 17° N 20:28:41 10° NE visible
27 May 4.4 22:00:40 10° NW 22:01:04 13° NW 22:01:04 13° NW visible
28 May 2.6 21:00:45 10° NW 21:03:33 30° NNE 21:03:34 30° NNE visible
